Time,TemperatureF,DewpointF,PressureIn,WindDirection,WindDirectionDegrees,WindSpeedMPH,WindSpeedGustMPH,Humidity,HourlyPrecipIn,Conditions,Clouds,dailyrainin,SoftwareType,DateUTC
2013-04-11 00:00:00,49.7,42.8,29.88,NW,312,0.7,1.2,77,0.00,RA,,0.00,WeatherDisplay:10.37,2013-04-11 05:00:00,
2013-04-11 00:05:00,49.6,42.7,29.88,North,355,0.7,0.0,77,0.00,RA,,0.00,WeatherDisplay:10.37,2013-04-11 05:05:00,
2013-04-11 00:10:00,49.6,42.7,29.88,North,350,2.4,4.0,77,0.00,RA,,0.00,WeatherDisplay:10.37,2013-04-11 05:10:00,
2013-04-11 00:15:00,49.5,42.6,29.88,NW,307,3.8,3.8,77,0.00,CLR,,0.00,WeatherDisplay:10.37,2013-04-11 05:15:00,
2013-04-11 00:20:00,49.5,42.6,29.88,NNW,347,0.1,3.5,77,0.00,CLR,,0.00,WeatherDisplay:10.37,2013-04-11 05:20:00,
2013-04-11 00:25:00,49.4,42.5,29.87,NW,317,3.5,4.6,77,0.00,CLR,,0.00,WeatherDisplay:10.37,2013-04-11 05:25:00,
2013-04-11 00:30:00,49.3,42.1,29.86,North,355,1.9,5.0,76,0.00,CLR,,0.00,WeatherDisplay:10.37,2013-04-11 05:30:00,
2013-04-11 00:35:00,49.3,42.1,29.86,NNW,333,2.0,3.5,76,0.00,CLR,,0.00,WeatherDisplay:10.37,2013-04-11 05:35:00,
2013-04-11 00:40:00,49.2,42.0,29.85,NW,321,3.0,3.5,76,0.00,CLR,,0.00,WeatherDisplay:10.37,2013-04-11 05:40:00,
2013-04-11 00:45:00,49.2,42.0,29.85,SE,130,1.6,2.3,76,0.00,CLR,,0.00,WeatherDisplay:10.37,2013-04-11 05:45:00,
2013-04-11 00:50:00,49.2,41.6,29.86,NNE,22,0.2,2.3,75,0.00,CLR,,0.00,WeatherDisplay:10.37,2013-04-11 05:50:00,
2013-04-11 00:55:00,49.2,41.6,29.87,ESE,122,0.0,0.0,75,0.00,CLR,,0.00,WeatherDisplay:10.37,2013-04-11 05:55:00,
2013-04-11 01:00:00,49.2,41.6,29.86,NNE,22,2.5,3.5,75,0.00,CLR,,0.00,WeatherDisplay:10.37,2013-04-11 06:00:00,
2013-04-11 01:05:00,49.2,41.6,29.87,NNW,342,1.6,3.5,75,0.00,CLR,,0.00,WeatherDisplay:10.37,2013-04-11 06:05:00,
2013-04-11 01:10:00,49.2,41.3,29.87,NNE,22,3.1,4.6,74,0.00,CLR,,0.00,WeatherDisplay:10.37,2013-04-11 06:10:00,
2013-04-11 01:15:00,49.2,40.9,29.85,NNW,347,2.4,3.5,73,0.00,CLR,,0.00,WeatherDisplay:10.37,2013-04-11 06:15:00,
2013-04-11 01:20:00,49.2,40.9,29.86,NE,35,2.2,4.0,73,0.00,CLR,,0.00,WeatherDisplay:10.37,2013-04-11 06:20:00,
2013-04-11 01:25:00,49.2,40.9,29.86,NNW,336,1.2,0.0,73,0.00,CLR,,0.00,WeatherDisplay:10.37,2013-04-11 06:25:00,
2013-04-11 01:30:00,49.1,40.8,29.85,NE,54,1.4,3.5,73,0.00,CLR,,0.00,WeatherDisplay:10.37,2013-04-11 06:30:00,
2013-04-11 01:35:00,49.1,41.9,29.85,NNW,348,1.9,4.0,76,0.00,CLR,,0.00,WeatherDisplay:10.37,2013-04-11 06:35:00,
2013-04-11 01:40:00,49.0,40.7,29.88,NNW,335,2.0,4.6,73,0.00,CLR,,0.00,WeatherDisplay:10.37,2013-04-11 06:40:00,
2013-04-11 01:45:00,49.0,40.7,29.88,North,5,4.0,4.6,73,0.00,CLR,,0.00,WeatherDisplay:10.37,2013-04-11 06:45:00,
2013-04-11 01:50:00,49.0,40.7,29.89,NNW,348,0.0,4.0,73,0.00,CLR,,0.00,WeatherDisplay:10.37,2013-04-11 06:50:00,
2013-04-11 01:55:00,49.1,40.8,29.91,NE,36,0.0,0.0,73,0.00,CLR,,0.00,WeatherDisplay:10.37,2013-04-11 06:55:00,
2013-04-11 02:00:00,49.1,40.8,29.89,NW,316,1.4,2.3,73,0.00,CLR,,0.00,WeatherDisplay:10.37,2013-04-11 07:00:00,
2013-04-11 02:05:00,49.0,40.7,29.88,NNW,344,1.3,3.5,73,0.00,CLR,,0.00,WeatherDisplay:10.37,2013-04-11 07:05:00,
2013-04-11 02:10:00,49.0,40.7,29.89,NNW,333,0.9,2.3,73,0.00,CLR,,0.00,WeatherDisplay:10.37,2013-04-11 07:10:00,
2013-04-11 02:15:00,49.0,40.7,29.88,NNE,14,1.4,3.5,73,0.00,CLR,,0.00,WeatherDisplay:10.37,2013-04-11 07:15:00,
2013-04-11 02:20:00,48.9,40.3,29.89,NNW,337,2.1,3.5,72,0.00,CLR,,0.00,WeatherDisplay:10.37,2013-04-11 07:20:00,
2013-04-11 02:25:00,48.9,40.6,29.90,SSE,148,0.0,0.0,73,0.00,CLR,,0.00,WeatherDisplay:10.37,2013-04-11 07:25:00,
2013-04-11 02:30:00,48.8,40.5,29.89,North,360,2.8,3.5,73,0.00,CLR,,0.00,WeatherDisplay:10.37,2013-04-11 07:30:00,
2013-04-11 02:35:00,48.7,40.4,29.91,NW,311,1.9,2.3,73,0.00,CLR,,0.00,WeatherDisplay:10.37,2013-04-11 07:35:00,
2013-04-11 02:40:00,48.7,40.4,29.90,NNW,340,2.0,2.3,73,0.00,CLR,,0.00,WeatherDisplay:10.37,2013-04-11 07:40:00,
2013-04-11 02:45:00,48.7,40.4,29.91,SSW,205,0.0,0.0,73,0.00,CLR,,0.00,WeatherDisplay:10.37,2013-04-11 07:45:00,
2013-04-11 02:50:00,48.7,40.4,29.91,WNW,288,1.4,3.5,73,0.00,CLR,,0.00,WeatherDisplay:10.37,2013-04-11 07:50:00,
2013-04-11 02:55:00,48.6,40.7,29.91,WNW,288,0.5,1.2,74,0.00,CLR,,0.00,WeatherDisplay:10.37,2013-04-11 07:55:00,
2013-04-11 03:00:00,48.6,40.7,29.90,NNW,329,0.8,2.3,74,0.00,CLR,,0.00,WeatherDisplay:10.37,2013-04-11 08:00:00,
2013-04-11 03:05:00,48.6,40.7,29.90,WNW,285,0.5,2.3,74,0.00,CLR,,0.00,WeatherDisplay:10.37,2013-04-11 08:05:00,
2013-04-11 03:10:00,48.5,40.9,29.88,North,9,2.3,3.5,75,0.00,CLR,,0.00,WeatherDisplay:10.37,2013-04-11 08:10:00,
2013-04-11 03:15:00,48.4,40.8,29.89,WNW,302,0.7,0.0,75,0.00,CLR,,0.00,WeatherDisplay:10.37,2013-04-11 08:15:00,
2013-04-11 03:20:00,48.3,40.7,29.89,NNW,343,0.1,1.2,75,0.00,CLR,,0.00,WeatherDisplay:10.37,2013-04-11 08:20:00,
2013-04-11 03:25:00,48.1,40.9,29.87,WNW,296,2.4,4.0,76,0.00,CLR,,0.00,WeatherDisplay:10.37,2013-04-11 08:25:00,
2013-04-11 03:30:00,47.9,40.7,29.87,North,355,2.0,4.0,76,0.00,CLR,,0.00,WeatherDisplay:10.37,2013-04-11 08:30:00,
2013-04-11 03:35:00,47.8,40.6,29.87,NE,51,0.7,1.2,76,0.00,CLR,,0.00,WeatherDisplay:10.37,2013-04-11 08:35:00,
2013-04-11 03:40:00,47.7,40.5,29.89,WNW,294,2.4,3.5,76,0.00,CLR,,0.00,WeatherDisplay:10.37,2013-04-11 08:40:00,
2013-04-11 03:45:00,47.7,40.5,29.91,NW,304,0.0,0.0,76,0.00,CLR,,0.00,WeatherDisplay:10.37,2013-04-11 08:45:00,
2013-04-11 03:50:00,47.7,40.5,29.90,NNW,342,0.9,2.3,76,0.00,CLR,,0.00,WeatherDisplay:10.37,2013-04-11 08:50:00,
2013-04-11 03:55:00,47.7,40.5,29.89,NNW,347,0.2,1.2,76,0.00,CLR,,0.00,WeatherDisplay:10.37,2013-04-11 08:55:00,
2013-04-11 04:00:00,47.7,40.5,29.90,NNW,346,1.9,2.3,76,0.00,CLR,,0.00,WeatherDisplay:10.37,2013-04-11 09:00:00,
2013-04-11 04:05:00,47.8,40.6,29.90,NNW,346,0.0,0.0,76,0.00,CLR,,0.00,WeatherDisplay:10.37,2013-04-11 09:05:00,
2013-04-11 04:10:00,47.8,41.3,29.89,NNW,346,0.0,0.0,78,0.00,CLR,,0.00,WeatherDisplay:10.37,2013-04-11 09:10:00,
2013-04-11 04:15:00,47.6,41.4,29.86,NE,44,1.0,3.5,79,0.00,CLR,,0.00,WeatherDisplay:10.37,2013-04-11 09:15:00,
2013-04-11 04:20:00,47.5,41.6,29.86,NE,40,1.4,3.5,80,0.00,CLR,,0.00,WeatherDisplay:10.37,2013-04-11 09:20:00,
2013-04-11 04:25:00,47.3,42.1,29.87,NE,36,0.0,1.2,82,0.01,RA,,0.01,WeatherDisplay:10.37,2013-04-11 09:25:00,
2013-04-11 04:30:00,47.1,42.2,29.87,WNW,300,0.0,0.0,83,0.01,RA,,0.01,WeatherDisplay:10.37,2013-04-11 09:30:00,
2013-04-11 04:35:00,46.8,42.2,29.84,ENE,78,1.7,3.5,84,0.01,,,0.01,WeatherDisplay:10.37,2013-04-11 09:35:00,
2013-04-11 04:40:00,46.5,42.2,29.83,North,10,0.0,0.0,85,0.01,CLR,,0.01,WeatherDisplay:10.37,2013-04-11 09:40:00,
2013-04-11 04:45:00,46.3,42.0,29.83,North,11,0.4,1.2,85,0.01,CLR,,0.01,WeatherDisplay:10.37,2013-04-11 09:45:00,
2013-04-11 04:50:00,46.0,41.7,29.83,ENE,71,0.9,2.3,85,0.01,CLR,,0.01,WeatherDisplay:10.37,2013-04-11 09:50:00,
2013-04-11 04:55:00,45.9,41.6,29.84,ENE,71,0.4,2.3,85,0.01,CLR,,0.01,WeatherDisplay:10.37,2013-04-11 09:55:00,
2013-04-11 05:00:00,45.8,41.5,29.83,East,80,0.0,1.0,85,0.01,CLR,,0.01,WeatherDisplay:10.37,2013-04-11 10:00:00,
2013-04-11 05:05:00,45.7,41.4,29.83,NNE,32,0.6,2.3,85,0.01,CLR,,0.01,WeatherDisplay:10.37,2013-04-11 10:05:00,
2013-04-11 05:10:00,45.7,41.4,29.84,NNE,32,0.0,0.0,85,0.01,CLR,,0.01,WeatherDisplay:10.37,2013-04-11 10:10:00,
2013-04-11 05:15:00,45.6,41.4,29.84,NW,319,0.5,2.3,85,0.01,CLR,,0.01,WeatherDisplay:10.37,2013-04-11 10:15:00,
2013-04-11 05:20:00,45.5,41.3,29.86,NW,304,2.1,4.0,85,0.01,CLR,,0.01,WeatherDisplay:10.37,2013-04-11 10:20:00,
2013-04-11 05:25:00,45.5,42.4,29.85,NW,313,0.4,3.5,89,0.00,CLR,,0.01,WeatherDisplay:10.37,2013-04-11 10:25:00,
2013-04-11 05:30:00,45.5,41.3,29.84,NNW,328,0.0,2.3,85,0.00,CLR,,0.01,WeatherDisplay:10.37,2013-04-11 10:30:00,
2013-04-11 05:35:00,45.4,41.2,29.84,NNW,341,1.3,2.3,85,0.00,CLR,,0.01,WeatherDisplay:10.37,2013-04-11 10:35:00,
2013-04-11 05:40:00,45.4,41.2,29.83,East,99,0.9,2.3,85,0.00,CLR,,0.01,WeatherDisplay:10.37,2013-04-11 10:40:00,
2013-04-11 05:45:00,45.4,40.8,29.83,East,88,2.2,3.5,84,0.00,CLR,,0.01,WeatherDisplay:10.37,2013-04-11 10:45:00,
2013-04-11 05:50:00,45.4,40.5,29.83,ENE,74,0.2,1.2,83,0.00,CLR,,0.01,WeatherDisplay:10.37,2013-04-11 10:50:00,
2013-04-11 05:55:00,45.4,40.5,29.82,ENE,59,0.0,1.2,83,0.00,CLR,,0.01,WeatherDisplay:10.37,2013-04-11 10:55:00,
2013-04-11 06:00:00,45.4,40.5,29.82,NE,49,0.0,0.0,83,0.00,CLR,,0.01,WeatherDisplay:10.37,2013-04-11 11:00:00,
2013-04-11 06:05:00,45.3,40.1,29.81,North,360,0.0,3.0,82,0.00,CLR,,0.01,WeatherDisplay:10.37,2013-04-11 11:05:00,
2013-04-11 06:10:00,45.4,40.2,29.83,WNW,288,0.0,1.2,82,0.00,CLR,,0.01,WeatherDisplay:10.37,2013-04-11 11:10:00,
2013-04-11 06:15:00,45.4,40.2,29.84,NW,322,1.0,2.0,82,0.00,CLR,,0.01,WeatherDisplay:10.37,2013-04-11 11:15:00,
2013-04-11 06:20:00,45.3,39.8,29.84,NW,322,1.2,3.5,81,0.00,CLR,,0.01,WeatherDisplay:10.37,2013-04-11 11:20:00,
2013-04-11 06:25:00,45.3,39.8,29.85,NW,322,0.5,2.3,81,0.00,CLR,,0.01,WeatherDisplay:10.37,2013-04-11 11:25:00,
2013-04-11 06:30:00,45.3,39.8,29.86,WNW,298,1.1,2.3,81,0.00,CLR,,0.01,WeatherDisplay:10.37,2013-04-11 11:30:00,
2013-04-11 06:35:00,45.3,39.8,29.86,North,355,1.9,3.5,81,0.00,CLR,,0.01,WeatherDisplay:10.37,2013-04-11 11:35:00,
2013-04-11 06:40:00,45.3,39.8,29.86,NNW,338,0.8,2.0,81,0.00,CLR,,0.01,WeatherDisplay:10.37,2013-04-11 11:40:00,
2013-04-11 06:45:00,45.3,39.8,29.86,NNW,336,2.0,2.3,81,0.00,CLR,,0.01,WeatherDisplay:10.37,2013-04-11 11:45:00,
2013-04-11 06:50:00,45.2,39.4,29.87,NNW,331,0.0,1.2,80,0.00,CLR,,0.01,WeatherDisplay:10.37,2013-04-11 11:50:00,
2013-04-11 06:55:00,45.2,39.4,29.88,NNW,332,1.0,1.2,80,0.00,CLR,,0.01,WeatherDisplay:10.37,2013-04-11 11:55:00,
2013-04-11 07:00:00,45.1,39.3,29.88,NW,321,0.4,2.3,80,0.00,CLR,,0.01,WeatherDisplay:10.37,2013-04-11 12:00:00,
2013-04-11 07:05:00,45.1,39.3,29.87,NW,321,0.0,2.3,80,0.00,CLR,,0.01,WeatherDisplay:10.37,2013-04-11 12:05:00,
2013-04-11 07:10:00,45.0,39.2,29.88,SW,231,0.0,0.0,80,0.00,CLR,,0.01,WeatherDisplay:10.37,2013-04-11 12:10:00,
2013-04-11 07:15:00,44.9,39.1,29.87,NNW,345,0.0,0.0,80,0.00,CLR,,0.01,WeatherDisplay:10.37,2013-04-11 12:15:00,
2013-04-11 07:20:00,44.9,39.1,29.88,NNW,345,0.0,0.0,80,0.00,CLR,,0.01,WeatherDisplay:10.37,2013-04-11 12:20:00,
2013-04-11 07:25:00,44.8,39.0,29.87,NE,55,0.0,0.0,80,0.00,CLR,,0.01,WeatherDisplay:10.37,2013-04-11 12:25:00,
2013-04-11 07:30:00,44.8,38.7,29.88,NE,34,0.1,1.0,79,0.00,CLR,,0.01,WeatherDisplay:10.37,2013-04-11 12:30:00,
2013-04-11 07:35:00,44.8,38.4,29.89,NW,315,0.0,0.0,78,0.00,CLR,,0.01,WeatherDisplay:10.37,2013-04-11 12:35:00,
2013-04-11 07:40:00,44.8,38.4,29.89,NW,315,0.0,2.3,78,0.00,CLR,,0.01,WeatherDisplay:10.37,2013-04-11 12:40:00,
2013-04-11 07:45:00,44.8,38.0,29.89,North,11,0.9,2.3,77,0.00,CLR,,0.01,WeatherDisplay:10.37,2013-04-11 12:45:00,
2013-04-11 07:50:00,44.9,37.8,29.90,South,188,0.0,3.5,76,0.00,CLR,,0.01,WeatherDisplay:10.37,2013-04-11 12:50:00,
2013-04-11 07:55:00,44.9,37.5,29.90,WSW,252,0.5,2.3,75,0.00,CLR,,0.01,WeatherDisplay:10.37,2013-04-11 12:55:00,
2013-04-11 08:00:00,45.0,37.9,29.90,WSW,252,0.0,0.0,76,0.00,CLR,,0.01,WeatherDisplay:10.37,2013-04-11 13:00:00,
2013-04-11 08:05:00,45.0,37.6,29.91,ENE,64,0.4,2.3,75,0.00,CLR,,0.01,WeatherDisplay:10.37,2013-04-11 13:05:00,
2013-04-11 08:10:00,45.1,37.6,29.91,ENE,69,0.0,0.0,75,0.00,CLR,,0.01,WeatherDisplay:10.37,2013-04-11 13:10:00,
2013-04-11 08:15:00,45.2,37.4,29.92,NW,311,0.6,2.3,74,0.00,CLR,,0.01,WeatherDisplay:10.37,2013-04-11 13:15:00,
2013-04-11 08:20:00,45.4,37.2,29.92,North,10,0.5,2.3,73,0.00,CLR,,0.01,WeatherDisplay:10.37,2013-04-11 13:20:00,
2013-04-11 08:25:00,45.6,37.1,29.92,North,10,1.7,3.5,72,0.00,CLR,,0.01,WeatherDisplay:10.37,2013-04-11 13:25:00,
2013-04-11 08:30:00,45.9,37.4,29.93,SSE,155,2.4,5.0,72,0.00,CLR,,0.01,WeatherDisplay:10.37,2013-04-11 13:30:00,
2013-04-11 08:35:00,46.1,36.9,29.93,NNE,22,1.4,2.3,70,0.00,CLR,,0.01,WeatherDisplay:10.37,2013-04-11 13:35:00,
2013-04-11 08:40:00,46.7,37.4,29.93,NNW,348,2.3,6.9,70,0.00,CLR,,0.01,WeatherDisplay:10.37,2013-04-11 13:40:00,
2013-04-11 08:45:00,47.0,37.4,29.92,North,360,2.1,3.5,69,0.00,CLR,,0.01,WeatherDisplay:10.37,2013-04-11 13:45:00,
2013-04-11 08:50:00,47.5,37.8,29.92,ESE,107,1.4,5.0,69,0.00,CLR,,0.01,WeatherDisplay:10.37,2013-04-11 13:50:00,
2013-04-11 08:55:00,48.0,37.6,29.92,NE,39,2.2,3.5,67,0.00,CLR,,0.01,WeatherDisplay:10.37,2013-04-11 13:55:00,
2013-04-11 09:00:00,48.4,37.2,29.93,North,9,2.7,5.0,65,0.00,CLR,,0.01,WeatherDisplay:10.37,2013-04-11 14:00:00,
2013-04-11 09:05:00,48.6,36.6,29.93,North,355,1.0,1.2,63,0.00,CLR,,0.01,WeatherDisplay:10.37,2013-04-11 14:05:00,
2013-04-11 09:10:00,48.9,37.3,29.93,NE,46,0.8,3.5,64,0.00,CLR,,0.01,WeatherDisplay:10.37,2013-04-11 14:10:00,
2013-04-11 09:15:00,49.3,37.6,29.93,North,351,2.5,3.5,64,0.00,CLR,,0.01,WeatherDisplay:10.37,2013-04-11 14:15:00,
2013-04-11 09:20:00,49.5,38.2,29.93,North,5,1.6,3.5,65,0.00,CLR,,0.01,WeatherDisplay:10.37,2013-04-11 14:20:00,
2013-04-11 09:25:00,49.6,37.9,29.93,ESE,105,0.0,3.5,64,0.00,CLR,,0.01,WeatherDisplay:10.37,2013-04-11 14:25:00,
2013-04-11 09:30:00,49.6,38.7,29.93,NE,44,1.6,4.6,66,0.00,CLR,,0.01,WeatherDisplay:10.37,2013-04-11 14:30:00,
2013-04-11 09:35:00,49.8,38.9,29.93,NNE,21,2.7,4.0,66,0.00,CLR,,0.01,WeatherDisplay:10.37,2013-04-11 14:35:00,
2013-04-11 09:40:00,50.0,39.1,29.93,NNE,19,1.7,3.5,66,0.00,CLR,,0.01,WeatherDisplay:10.37,2013-04-11 14:40:00,
2013-04-11 09:45:00,50.3,39.0,29.93,NE,37,2.0,2.3,65,0.00,CLR,,0.01,WeatherDisplay:10.37,2013-04-11 14:45:00,
2013-04-11 09:50:00,50.6,38.9,29.94,ENE,59,0.0,0.0,64,0.00,CLR,,0.01,WeatherDisplay:10.37,2013-04-11 14:50:00,
2013-04-11 09:55:00,51.1,38.5,29.93,NNE,17,1.0,1.2,62,0.00,CLR,,0.01,WeatherDisplay:10.37,2013-04-11 14:55:00,
2013-04-11 10:00:00,51.4,37.5,29.94,North,355,2.5,3.5,59,0.00,CLR,,0.01,WeatherDisplay:10.37,2013-04-11 15:00:00,
2013-04-11 10:05:00,51.7,37.8,29.94,North,5,1.1,3.5,59,0.00,CLR,,0.01,WeatherDisplay:10.37,2013-04-11 15:05:00,
2013-04-11 10:10:00,51.9,36.7,29.94,North,360,2.4,3.5,56,0.00,CLR,,0.01,WeatherDisplay:10.37,2013-04-11 15:10:00,
2013-04-11 10:15:00,52.1,37.8,29.94,NE,48,1.5,3.5,58,0.00,CLR,,0.01,WeatherDisplay:10.37,2013-04-11 15:15:00,
2013-04-11 10:20:00,52.3,38.0,29.94,NNW,348,1.1,3.5,58,0.00,CLR,,0.01,WeatherDisplay:10.37,2013-04-11 15:20:00,
2013-04-11 10:25:00,52.6,37.8,29.94,NE,53,1.8,6.0,57,0.00,CLR,,0.01,WeatherDisplay:10.37,2013-04-11 15:25:00,
2013-04-11 10:30:00,52.7,37.4,29.94,NNE,16,1.0,3.5,56,0.00,CLR,,0.01,WeatherDisplay:10.37,2013-04-11 15:30:00,
2013-04-11 10:35:00,53.0,37.7,29.94,NE,37,2.5,6.9,56,0.00,CLR,,0.01,WeatherDisplay:10.37,2013-04-11 15:35:00,
2013-04-11 10:40:00,53.2,37.9,29.94,ENE,59,1.3,3.5,56,0.00,CLR,,0.01,WeatherDisplay:10.37,2013-04-11 15:40:00,
2013-04-11 10:45:00,53.6,37.8,29.94,NNW,339,1.7,3.5,55,0.00,CLR,,0.01,WeatherDisplay:10.37,2013-04-11 15:45:00,
2013-04-11 10:50:00,54.0,37.7,29.94,East,97,1.5,4.6,54,0.00,CLR,,0.01,WeatherDisplay:10.37,2013-04-11 15:50:00,
2013-04-11 10:55:00,54.5,38.2,29.93,East,83,0.6,2.3,54,0.00,CLR,,0.01,WeatherDisplay:10.37,2013-04-11 15:55:00,
2013-04-11 11:00:00,55.0,38.2,29.94,ENE,63,3.0,3.5,53,0.00,CLR,,0.01,WeatherDisplay:10.37,2013-04-11 16:00:00,
2013-04-11 11:05:00,55.3,38.4,29.94,North,355,0.5,4.6,53,0.00,CLR,,0.01,WeatherDisplay:10.37,2013-04-11 16:05:00,
2013-04-11 11:10:00,55.8,39.4,29.93,NNW,348,1.5,3.0,54,0.00,CLR,,0.01,WeatherDisplay:10.37,2013-04-11 16:10:00,
2013-04-11 11:15:00,56.0,38.1,29.93,North,355,1.7,5.8,51,0.00,CLR,,0.01,WeatherDisplay:10.37,2013-04-11 16:15:00,
2013-04-11 11:20:00,56.3,39.9,29.93,NE,48,2.0,5.0,54,0.00,CLR,,0.01,WeatherDisplay:10.37,2013-04-11 16:20:00,
2013-04-11 11:25:00,56.6,39.2,29.93,NE,43,0.2,2.3,52,0.00,CLR,,0.01,WeatherDisplay:10.37,2013-04-11 16:25:00,
2013-04-11 11:30:00,56.9,40.9,29.93,NE,53,1.3,3.0,55,0.00,CLR,,0.01,WeatherDisplay:10.37,2013-04-11 16:30:00,
2013-04-11 11:35:00,57.1,40.6,29.93,East,100,0.9,5.0,54,0.00,CLR,,0.01,WeatherDisplay:10.37,2013-04-11 16:35:00,
2013-04-11 11:40:00,56.8,39.8,29.93,WSW,245,1.7,3.5,53,0.00,CLR,,0.01,WeatherDisplay:10.37,2013-04-11 16:40:00,
2013-04-11 11:45:00,57.0,40.5,29.92,NNW,344,3.1,6.0,54,0.00,CLR,,0.01,WeatherDisplay:10.37,2013-04-11 16:45:00,
2013-04-11 11:50:00,57.5,40.5,29.92,NW,323,0.1,1.0,53,0.00,CLR,,0.01,WeatherDisplay:10.37,2013-04-11 16:50:00,
2013-04-11 11:55:00,58.4,40.8,29.92,NW,323,0.0,0.0,52,0.00,CLR,,0.01,WeatherDisplay:10.37,2013-04-11 16:55:00,
2013-04-11 12:00:00,58.6,41.0,29.92,ENE,71,0.5,1.2,52,0.00,CLR,,0.01,WeatherDisplay:10.37,2013-04-11 17:00:00,
2013-04-11 12:05:00,59.0,40.4,29.92,NNE,17,0.3,1.2,50,0.00,CLR,,0.01,WeatherDisplay:10.37,2013-04-11 17:05:00,
2013-04-11 12:10:00,59.5,40.3,29.92,East,80,1.1,2.3,49,0.00,CLR,,0.01,WeatherDisplay:10.37,2013-04-11 17:10:00,
2013-04-11 12:15:00,59.4,40.2,29.91,ENE,76,0.9,2.3,49,0.00,CLR,,0.01,WeatherDisplay:10.37,2013-04-11 17:15:00,
2013-04-11 12:20:00,59.7,41.5,29.91,NE,47,0.1,3.5,51,0.00,CLR,,0.01,WeatherDisplay:10.37,2013-04-11 17:20:00,
2013-04-11 12:25:00,60.5,40.7,29.91,East,84,2.1,2.3,48,0.00,CLR,,0.01,WeatherDisplay:10.37,2013-04-11 17:25:00,
2013-04-11 12:30:00,61.0,40.6,29.91,NE,46,0.4,1.2,47,0.00,CLR,,0.01,WeatherDisplay:10.37,2013-04-11 17:30:00,
2013-04-11 12:35:00,61.4,41.0,29.90,ENE,61,0.7,1.2,47,0.00,CLR,,0.01,WeatherDisplay:10.37,2013-04-11 17:35:00,
2013-04-11 12:40:00,61.7,40.7,29.90,NE,51,2.2,3.5,46,0.00,CLR,,0.01,WeatherDisplay:10.37,2013-04-11 17:40:00,
2013-04-11 12:45:00,61.9,40.9,29.90,NNE,24,0.0,0.0,46,0.00,CLR,,0.01,WeatherDisplay:10.37,2013-04-11 17:45:00,
2013-04-11 12:50:00,62.7,41.6,29.90,West,267,0.6,2.3,46,0.00,CLR,,0.01,WeatherDisplay:10.37,2013-04-11 17:50:00,
2013-04-11 12:55:00,63.3,41.0,29.89,ENE,76,1.7,1.7,44,0.00,CLR,,0.01,WeatherDisplay:10.37,2013-04-11 17:55:00,
2013-04-11 13:00:00,63.2,41.5,29.89,NW,323,1.9,3.5,45,0.00,CLR,,0.01,WeatherDisplay:10.37,2013-04-11 18:00:00,
2013-04-11 13:05:00,63.4,39.9,29.89,ENE,59,0.0,3.5,42,0.00,CLR,,0.01,WeatherDisplay:10.37,2013-04-11 18:05:00,
2013-04-11 13:10:00,63.4,39.9,29.88,ESE,111,0.1,2.3,42,0.00,CLR,,0.01,WeatherDisplay:10.37,2013-04-11 18:10:00,
2013-04-11 13:15:00,63.6,40.1,29.88,ESE,113,0.2,4.0,42,0.00,CLR,,0.01,WeatherDisplay:10.37,2013-04-11 18:15:00,
2013-04-11 13:20:00,64.0,42.2,29.88,NNE,19,0.1,2.3,45,0.00,CLR,,0.01,WeatherDisplay:10.37,2013-04-11 18:20:00,
2013-04-11 13:25:00,64.7,41.7,29.88,ENE,65,1.8,3.5,43,0.00,CLR,,0.01,WeatherDisplay:10.37,2013-04-11 18:25:00,
2013-04-11 13:30:00,65.2,40.9,29.87,NNE,28,0.5,2.3,41,0.00,CLR,,0.01,WeatherDisplay:10.37,2013-04-11 18:30:00,
2013-04-11 13:35:00,65.4,39.8,29.87,NNE,28,0.0,2.3,39,0.00,CLR,,0.01,WeatherDisplay:10.37,2013-04-11 18:35:00,
2013-04-11 13:40:00,66.1,40.4,29.87,SSW,213,0.0,1.2,39,0.00,CLR,,0.01,WeatherDisplay:10.37,2013-04-11 18:40:00,
2013-04-11 13:45:00,66.8,42.3,29.87,SE,125,0.3,1.2,41,0.00,CLR,,0.01,WeatherDisplay:10.37,2013-04-11 18:45:00,
2013-04-11 13:50:00,67.6,41.7,29.86,SE,136,0.0,0.0,39,0.00,CLR,,0.01,WeatherDisplay:10.37,2013-04-11 18:50:00,
2013-04-11 13:55:00,67.3,40.8,29.86,SE,126,0.0,0.0,38,0.00,CLR,,0.01,WeatherDisplay:10.37,2013-04-11 18:55:00,
2013-04-11 14:00:00,67.7,41.2,29.86,ENE,67,0.9,1.2,38,0.00,CLR,,0.01,WeatherDisplay:10.37,2013-04-11 19:00:00,
2013-04-11 14:05:00,68.4,42.5,29.85,ENE,78,0.8,4.6,39,0.00,CLR,,0.01,WeatherDisplay:10.37,2013-04-11 19:05:00,
2013-04-11 14:10:00,69.0,43.7,29.85,SW,217,1.2,3.0,40,0.00,CLR,,0.01,WeatherDisplay:10.37,2013-04-11 19:10:00,
2013-04-11 14:15:00,69.6,42.2,29.84,SW,224,2.8,3.5,37,0.00,CLR,,0.01,WeatherDisplay:10.37,2013-04-11 19:15:00,
2013-04-11 14:20:00,69.4,42.0,29.84,NNE,24,0.0,1.2,37,0.00,CLR,,0.01,WeatherDisplay:10.37,2013-04-11 19:20:00,
2013-04-11 14:25:00,69.2,41.8,29.84,ENE,69,0.1,2.3,37,0.00,CLR,,0.01,WeatherDisplay:10.37,2013-04-11 19:25:00,
2013-04-11 14:30:00,68.5,41.2,29.83,SW,214,0.4,2.3,37,0.00,CLR,,0.01,WeatherDisplay:10.37,2013-04-11 19:30:00,
2013-04-11 14:35:00,69.3,41.2,29.83,ESE,105,0.3,2.3,36,0.00,CLR,,0.01,WeatherDisplay:10.37,2013-04-11 19:35:00,
2013-04-11 14:40:00,69.3,41.2,29.83,ENE,68,0.2,3.5,36,0.00,CLR,,0.01,WeatherDisplay:10.37,2013-04-11 19:40:00,
2013-04-11 14:45:00,70.4,42.9,29.82,SSE,165,0.0,1.2,37,0.00,CLR,,0.01,WeatherDisplay:10.37,2013-04-11 19:45:00,
2013-04-11 14:50:00,71.2,43.6,29.82,ESE,123,0.0,0.0,37,0.00,CLR,,0.01,WeatherDisplay:10.37,2013-04-11 19:50:00,
2013-04-11 14:55:00,70.9,42.6,29.82,East,95,0.2,1.2,36,0.00,CLR,,0.01,WeatherDisplay:10.37,2013-04-11 19:55:00,
2013-04-11 15:00:00,69.8,42.3,29.81,NE,41,0.8,1.2,37,0.00,CLR,,0.01,WeatherDisplay:10.37,2013-04-11 20:00:00,
2013-04-11 15:05:00,69.4,42.0,29.81,NE,49,1.0,3.5,37,0.00,CLR,,0.01,WeatherDisplay:10.37,2013-04-11 20:05:00,
2013-04-11 15:10:00,69.3,43.3,29.81,ENE,76,0.3,1.2,39,0.00,CLR,,0.01,WeatherDisplay:10.37,2013-04-11 20:10:00,
2013-04-11 15:15:00,69.9,43.1,29.81,North,5,0.1,1.2,38,0.00,CLR,,0.01,WeatherDisplay:10.37,2013-04-11 20:15:00,
2013-04-11 15:20:00,70.7,43.1,29.81,East,81,0.3,1.2,37,0.00,CLR,,0.01,WeatherDisplay:10.37,2013-04-11 20:20:00,
2013-04-11 15:25:00,71.6,42.5,29.80,East,90,0.4,1.2,35,0.00,CLR,,0.01,WeatherDisplay:10.37,2013-04-11 20:25:00,
2013-04-11 15:30:00,72.4,44.6,29.80,SW,232,0.3,3.0,37,0.00,CLR,,0.01,WeatherDisplay:10.37,2013-04-11 20:30:00,
2013-04-11 15:35:00,72.8,42.8,29.80,ENE,76,0.2,2.3,34,0.00,CLR,,0.01,WeatherDisplay:10.37,2013-04-11 20:35:00,
2013-04-11 15:40:00,72.6,44.1,29.80,NNE,17,0.0,0.0,36,0.00,CLR,,0.01,WeatherDisplay:10.37,2013-04-11 20:40:00,
2013-04-11 15:45:00,73.1,43.1,29.79,NNW,339,0.3,1.2,34,0.00,CLR,,0.01,WeatherDisplay:10.37,2013-04-11 20:45:00,
2013-04-11 15:50:00,73.0,43.7,29.79,ENE,67,0.0,0.0,35,0.00,CLR,,0.01,WeatherDisplay:10.37,2013-04-11 20:50:00,
2013-04-11 15:55:00,72.9,44.4,29.79,ENE,67,0.0,0.0,36,0.00,CLR,,0.01,WeatherDisplay:10.37,2013-04-11 20:55:00,
2013-04-11 16:00:00,73.5,44.2,29.78,ENE,61,0.4,3.5,35,0.00,CLR,,0.01,WeatherDisplay:10.37,2013-04-11 21:00:00,
2013-04-11 16:05:00,73.1,43.8,29.78,East,86,0.5,2.3,35,0.00,CLR,,0.01,WeatherDisplay:10.37,2013-04-11 21:05:00,
2013-04-11 16:10:00,72.8,43.5,29.78,ENE,67,1.3,4.0,35,0.00,CLR,,0.01,WeatherDisplay:10.37,2013-04-11 21:10:00,
2013-04-11 16:15:00,72.9,42.9,29.77,NE,35,1.2,2.3,34,0.00,CLR,,0.01,WeatherDisplay:10.37,2013-04-11 21:15:00,
2013-04-11 16:20:00,72.0,42.8,29.77,NE,53,1.3,4.0,35,0.00,CLR,,0.01,WeatherDisplay:10.37,2013-04-11 21:20:00,
2013-04-11 16:25:00,71.5,42.4,29.77,NE,47,0.0,1.0,35,0.00,CLR,,0.01,WeatherDisplay:10.37,2013-04-11 21:25:00,
2013-04-11 16:30:00,71.9,43.5,29.76,ENE,61,0.4,3.5,36,0.00,CLR,,0.01,WeatherDisplay:10.37,2013-04-11 21:30:00,
2013-04-11 16:35:00,71.1,42.0,29.76,ENE,69,0.7,1.2,35,0.00,CLR,,0.01,WeatherDisplay:10.37,2013-04-11 21:35:00,
2013-04-11 16:40:00,70.9,44.0,29.76,East,101,0.7,0.0,38,0.00,CLR,,0.01,WeatherDisplay:10.37,2013-04-11 21:40:00,
2013-04-11 16:45:00,70.6,43.1,29.76,NE,51,0.2,2.0,37,0.00,CLR,,0.01,WeatherDisplay:10.37,2013-04-11 21:45:00,
2013-04-11 16:50:00,70.3,43.5,29.76,NE,55,0.0,2.3,38,0.00,CLR,,0.01,WeatherDisplay:10.37,2013-04-11 21:50:00,
2013-04-11 16:55:00,71.3,45.1,29.76,NE,55,0.0,0.0,39,0.00,CLR,,0.01,WeatherDisplay:10.37,2013-04-11 21:55:00,
2013-04-11 17:00:00,72.5,43.3,29.76,NE,55,0.1,1.2,35,0.00,CLR,,0.01,WeatherDisplay:10.37,2013-04-11 22:00:00,
2013-04-11 17:05:00,72.9,44.4,29.76,NE,38,0.3,3.0,36,0.00,CLR,,0.01,WeatherDisplay:10.37,2013-04-11 22:05:00,
2013-04-11 17:10:00,72.2,43.0,29.76,ENE,74,0.8,2.3,35,0.00,CLR,,0.01,WeatherDisplay:10.37,2013-04-11 22:10:00,
2013-04-11 17:15:00,71.5,43.1,29.75,ENE,63,0.0,1.2,36,0.00,CLR,,0.01,WeatherDisplay:10.37,2013-04-11 22:15:00,
2013-04-11 17:20:00,71.5,43.1,29.75,East,79,0.8,1.2,36,0.00,CLR,,0.01,WeatherDisplay:10.37,2013-04-11 22:20:00,
2013-04-11 17:25:00,71.8,44.1,29.75,East,79,0.0,1.2,37,0.00,CLR,,0.01,WeatherDisplay:10.37,2013-04-11 22:25:00,
2013-04-11 17:30:00,72.3,43.8,29.75,NNE,22,0.0,1.2,36,0.00,CLR,,0.01,WeatherDisplay:10.37,2013-04-11 22:30:00,
2013-04-11 17:35:00,72.8,44.3,29.75,NNE,22,0.0,0.0,36,0.00,CLR,,0.01,WeatherDisplay:10.37,2013-04-11 22:35:00,
2013-04-11 17:40:00,73.2,43.9,29.76,WSW,242,0.0,0.0,35,0.00,CLR,,0.01,WeatherDisplay:10.37,2013-04-11 22:40:00,
2013-04-11 17:45:00,73.3,44.7,29.76,ENE,73,0.6,2.0,36,0.00,CLR,,0.01,WeatherDisplay:10.37,2013-04-11 22:45:00,
2013-04-11 17:50:00,73.0,43.7,29.76,ENE,72,0.0,1.2,35,0.00,CLR,,0.01,WeatherDisplay:10.37,2013-04-11 22:50:00,
2013-04-11 17:55:00,73.0,44.5,29.76,ENE,69,0.0,1.2,36,0.00,CLR,,0.01,WeatherDisplay:10.37,2013-04-11 22:55:00,
2013-04-11 18:00:00,72.9,43.6,29.76,ENE,70,0.0,0.0,35,0.00,CLR,,0.01,WeatherDisplay:10.37,2013-04-11 23:00:00,
2013-04-11 18:05:00,72.6,44.1,29.75,SE,140,0.5,2.3,36,0.00,CLR,,0.01,WeatherDisplay:10.37,2013-04-11 23:05:00,
2013-04-11 18:10:00,71.9,43.5,29.75,East,96,0.0,0.0,36,0.00,CLR,,0.01,WeatherDisplay:10.37,2013-04-11 23:10:00,
2013-04-11 18:15:00,71.2,43.6,29.75,East,90,0.0,0.0,37,0.00,CLR,,0.01,WeatherDisplay:10.37,2013-04-11 23:15:00,
2013-04-11 18:20:00,70.6,43.7,29.75,East,90,0.0,0.0,38,0.00,CLR,,0.01,WeatherDisplay:10.37,2013-04-11 23:20:00,
2013-04-11 18:25:00,70.0,43.2,29.75,ENE,63,0.0,0.0,38,0.00,CLR,,0.01,WeatherDisplay:10.37,2013-04-11 23:25:00,
2013-04-11 18:30:00,69.5,43.4,29.75,ENE,65,0.0,1.2,39,0.00,CLR,,0.01,WeatherDisplay:10.37,2013-04-11 23:30:00,
2013-04-11 18:35:00,69.1,43.1,29.75,ENE,65,0.0,0.0,39,0.00,CLR,,0.01,WeatherDisplay:10.37,2013-04-11 23:35:00,
2013-04-11 18:40:00,68.8,42.8,29.75,NE,50,0.0,1.2,39,0.00,CLR,,0.01,WeatherDisplay:10.37,2013-04-11 23:40:00,
2013-04-11 18:45:00,68.3,43.0,29.75,NE,53,0.0,0.0,40,0.00,CLR,,0.01,WeatherDisplay:10.37,2013-04-11 23:45:00,
2013-04-11 18:50:00,68.0,42.8,29.75,ENE,58,0.0,0.0,40,0.00,CLR,,0.01,WeatherDisplay:10.37,2013-04-11 23:50:00,
2013-04-11 18:55:00,67.9,43.3,29.76,ENE,58,0.0,0.0,41,0.00,CLR,,0.01,WeatherDisplay:10.37,2013-04-11 23:55:00,
2013-04-11 19:00:00,67.6,43.1,29.76,ENE,58,0.0,0.0,41,0.00,CLR,,0.01,WeatherDisplay:10.37,2013-04-12 00:00:00,
2013-04-11 19:05:00,67.2,42.0,29.76,ENE,58,0.1,1.0,40,0.00,CLR,,0.01,WeatherDisplay:10.37,2013-04-12 00:05:00,
2013-04-11 19:10:00,66.9,42.4,29.76,NE,39,0.0,0.0,41,0.00,CLR,,0.01,WeatherDisplay:10.37,2013-04-12 00:10:00,
2013-04-11 19:15:00,66.7,43.5,29.76,NE,39,0.0,0.0,43,0.00,CLR,,0.01,WeatherDisplay:10.37,2013-04-12 00:15:00,
2013-04-11 19:20:00,66.4,43.2,29.76,NE,39,0.0,0.0,43,0.00,CLR,,0.01,WeatherDisplay:10.37,2013-04-12 00:20:00,
2013-04-11 19:25:00,66.1,42.9,29.76,NE,39,0.0,1.0,43,0.00,CLR,,0.01,WeatherDisplay:10.37,2013-04-12 00:25:00,
2013-04-11 19:30:00,65.8,43.3,29.76,NE,39,0.0,0.0,44,0.00,CLR,,0.01,WeatherDisplay:10.37,2013-04-12 00:30:00,
2013-04-11 19:35:00,65.5,44.2,29.76,NE,39,0.0,0.0,46,0.00,CLR,,0.01,WeatherDisplay:10.37,2013-04-12 00:35:00,
2013-04-11 19:40:00,65.2,43.9,29.76,NE,39,0.0,0.0,46,0.00,CLR,,0.01,WeatherDisplay:10.37,2013-04-12 00:40:00,
2013-04-11 19:45:00,65.0,43.7,29.76,NE,39,0.0,0.0,46,0.00,CLR,,0.01,WeatherDisplay:10.37,2013-04-12 00:45:00,
2013-04-11 19:50:00,64.7,44.0,29.76,NE,39,0.0,0.0,47,0.00,CLR,,0.01,WeatherDisplay:10.37,2013-04-12 00:50:00,
2013-04-11 19:55:00,64.4,43.7,29.77,NE,39,0.0,0.0,47,0.00,CLR,,0.01,WeatherDisplay:10.37,2013-04-12 00:55:00,
2013-04-11 20:00:00,63.9,43.8,29.77,NE,39,0.0,0.0,48,0.00,CLR,,0.01,WeatherDisplay:10.37,2013-04-12 01:00:00,
2013-04-11 20:05:00,63.4,44.4,29.77,NE,39,0.0,0.0,50,0.00,CLR,,0.01,WeatherDisplay:10.37,2013-04-12 01:05:00,
2013-04-11 20:10:00,62.8,43.9,29.77,NE,39,0.0,1.2,50,0.00,CLR,,0.01,WeatherDisplay:10.37,2013-04-12 01:10:00,
2013-04-11 20:15:00,62.3,44.4,29.77,NE,39,0.0,0.0,52,0.00,CLR,,0.01,WeatherDisplay:10.37,2013-04-12 01:15:00,
2013-04-11 20:20:00,61.6,43.3,29.78,NE,39,0.0,0.0,51,0.00,CLR,,0.01,WeatherDisplay:10.37,2013-04-12 01:20:00,
2013-04-11 20:25:00,61.1,43.8,29.78,NE,39,0.0,0.0,53,0.00,CLR,,0.01,WeatherDisplay:10.37,2013-04-12 01:25:00,
2013-04-11 20:30:00,60.7,43.5,29.78,NE,39,0.0,0.0,53,0.00,CLR,,0.01,WeatherDisplay:10.37,2013-04-12 01:30:00,
2013-04-11 20:35:00,60.3,44.1,29.78,NE,39,0.0,0.0,55,0.00,CLR,,0.01,WeatherDisplay:10.37,2013-04-12 01:35:00,
2013-04-11 20:40:00,59.9,43.7,29.78,NE,39,0.0,0.0,55,0.00,CLR,,0.01,WeatherDisplay:10.37,2013-04-12 01:40:00,
2013-04-11 20:45:00,59.6,43.9,29.79,NE,39,0.0,0.0,56,0.00,CLR,,0.01,WeatherDisplay:10.37,2013-04-12 01:45:00,
2013-04-11 20:50:00,59.2,44.0,29.79,NE,39,0.0,0.0,57,0.00,CLR,,0.01,WeatherDisplay:10.37,2013-04-12 01:50:00,
2013-04-11 20:55:00,58.8,43.6,29.79,NE,39,0.0,0.0,57,0.00,CLR,,0.01,WeatherDisplay:10.37,2013-04-12 01:55:00,
2013-04-11 21:00:00,58.5,43.8,29.79,NE,39,0.0,0.0,58,0.00,CLR,,0.01,WeatherDisplay:10.37,2013-04-12 02:00:00,
2013-04-11 21:05:00,58.1,43.8,29.79,NE,39,0.0,0.0,59,0.00,CLR,,0.01,WeatherDisplay:10.37,2013-04-12 02:05:00,
2013-04-11 21:10:00,57.7,43.9,29.79,NE,39,0.0,0.0,60,0.00,CLR,,0.01,WeatherDisplay:10.37,2013-04-12 02:10:00,
2013-04-11 21:15:00,57.1,43.8,29.79,NE,39,0.0,0.0,61,0.00,CLR,,0.01,WeatherDisplay:10.37,2013-04-12 02:15:00,
2013-04-11 21:20:00,56.6,43.7,29.79,NE,39,0.0,0.0,62,0.00,CLR,,0.01,WeatherDisplay:10.37,2013-04-12 02:20:00,
2013-04-11 21:25:00,56.2,43.8,29.79,NE,39,0.0,0.0,63,0.00,CLR,,0.01,WeatherDisplay:10.37,2013-04-12 02:25:00,
2013-04-11 21:30:00,55.7,44.1,29.80,NE,39,0.0,0.0,65,0.00,CLR,,0.01,WeatherDisplay:10.37,2013-04-12 02:30:00,
2013-04-11 21:35:00,55.4,43.8,29.80,NE,39,0.0,0.0,65,0.00,CLR,,0.01,WeatherDisplay:10.37,2013-04-12 02:35:00,
2013-04-11 21:40:00,55.1,43.5,29.80,NE,39,0.0,0.0,65,0.00,CLR,,0.01,WeatherDisplay:10.37,2013-04-12 02:40:00,
2013-04-11 21:45:00,54.8,44.0,29.80,NE,39,0.0,0.0,67,0.00,CLR,,0.01,WeatherDisplay:10.37,2013-04-12 02:45:00,
2013-04-11 21:50:00,54.4,43.7,29.81,NE,39,0.0,0.0,67,0.00,CLR,,0.01,WeatherDisplay:10.37,2013-04-12 02:50:00,
2013-04-11 21:55:00,53.9,44.0,29.81,NE,39,0.0,0.0,69,0.00,CLR,,0.01,WeatherDisplay:10.37,2013-04-12 02:55:00,
2013-04-11 22:00:00,53.6,43.7,29.81,NE,39,0.0,0.0,69,0.00,CLR,,0.01,WeatherDisplay:10.37,2013-04-12 03:00:00,
2013-04-11 22:05:00,53.3,43.8,29.81,NE,39,0.0,0.0,70,0.00,CLR,,0.01,WeatherDisplay:10.37,2013-04-12 03:05:00,
2013-04-11 22:10:00,53.0,43.8,29.82,NE,39,0.0,0.0,71,0.00,CLR,,0.01,WeatherDisplay:10.37,2013-04-12 03:10:00,
2013-04-11 22:15:00,52.6,43.8,29.82,NE,39,0.0,0.0,72,0.00,CLR,,0.01,WeatherDisplay:10.37,2013-04-12 03:15:00,
2013-04-11 22:20:00,52.3,43.9,29.82,NE,39,0.0,0.0,73,0.00,CLR,,0.01,WeatherDisplay:10.37,2013-04-12 03:20:00,
2013-04-11 22:25:00,52.0,44.0,29.82,NE,39,0.0,0.0,74,0.00,CLR,,0.01,WeatherDisplay:10.37,2013-04-12 03:25:00,
2013-04-11 22:30:00,51.8,44.1,29.82,NE,39,0.0,0.0,75,0.00,CLR,,0.01,WeatherDisplay:10.37,2013-04-12 03:30:00,
2013-04-11 22:35:00,51.6,43.9,29.82,NE,39,0.0,0.0,75,0.00,CLR,,0.01,WeatherDisplay:10.37,2013-04-12 03:35:00,
2013-04-11 22:40:00,51.5,44.2,29.83,NE,39,0.0,0.0,76,0.00,CLR,,0.01,WeatherDisplay:10.37,2013-04-12 03:40:00,
2013-04-11 22:45:00,51.2,44.2,29.83,NE,39,0.0,0.0,77,0.00,CLR,,0.01,WeatherDisplay:10.37,2013-04-12 03:45:00,
2013-04-11 22:50:00,51.0,44.4,29.83,NE,39,0.0,0.0,78,0.00,CLR,,0.01,WeatherDisplay:10.37,2013-04-12 03:50:00,
2013-04-11 22:55:00,50.9,44.3,29.83,NE,39,0.0,0.0,78,0.00,CLR,,0.01,WeatherDisplay:10.37,2013-04-12 03:55:00,
2013-04-11 23:00:00,50.7,44.1,29.84,NE,39,0.0,0.0,78,0.00,CLR,,0.01,WeatherDisplay:10.37,2013-04-12 04:00:00,
2013-04-11 23:05:00,50.6,44.0,29.84,NE,39,0.0,0.0,78,0.00,CLR,,0.01,WeatherDisplay:10.37,2013-04-12 04:05:00,
2013-04-11 23:10:00,50.4,43.8,29.84,NE,39,0.0,0.0,78,0.00,CLR,,0.01,WeatherDisplay:10.37,2013-04-12 04:10:00,
2013-04-11 23:15:00,50.2,43.6,29.85,NE,39,0.0,0.0,78,0.00,CLR,,0.01,WeatherDisplay:10.37,2013-04-12 04:15:00,
2013-04-11 23:20:00,50.0,43.4,29.85,NE,39,0.0,0.0,78,0.00,CLR,,0.01,WeatherDisplay:10.37,2013-04-12 04:20:00,
2013-04-11 23:25:00,49.8,43.2,29.85,NE,39,0.0,0.0,78,0.00,CLR,,0.01,WeatherDisplay:10.37,2013-04-12 04:25:00,
2013-04-11 23:30:00,49.5,43.3,29.85,NE,39,0.0,0.0,79,0.00,CLR,,0.01,WeatherDisplay:10.37,2013-04-12 04:30:00,
2013-04-11 23:35:00,49.3,43.1,29.85,NE,39,0.0,0.0,79,0.00,CLR,,0.01,WeatherDisplay:10.37,2013-04-12 04:35:00,
2013-04-11 23:40:00,49.1,42.9,29.85,NE,39,0.0,0.0,79,0.00,CLR,,0.01,WeatherDisplay:10.37,2013-04-12 04:40:00,
2013-04-11 23:45:00,48.9,42.7,29.85,NE,39,0.0,0.0,79,0.00,CLR,,0.01,WeatherDisplay:10.37,2013-04-12 04:45:00,
2013-04-11 23:50:00,48.7,42.5,29.85,NE,39,0.0,0.0,79,0.00,CLR,,0.01,WeatherDisplay:10.37,2013-04-12 04:50:00,
2013-04-11 23:55:00,48.5,42.6,29.85,NE,39,0.0,0.0,80,0.00,CLR,,0.01,WeatherDisplay:10.37,2013-04-12 04:55:00,